Вернуться в каталог

OPS 4682 DEB

АктивенPO
NORAD 38449·DEBRIS·🇺🇸 United States

Запущен Apr 3, 1965 с Vandenberg Space Force Base

Loading…

Ближайшие Пролёты (ближайшие 24 часа)

TLE

СвежийSource: Space-Track

Эпоха: Sep 14, 2026, 00:39 UTC

1 38449U 65027FE  26257.02718344  .00000163  00000-0  55192-3 0  9994
2 38449  90.2543  13.0196 0029427 294.3574  65.4474 12.95299137599136

Отслеживайте OPS 4682 DEB в реальном времени с AllMySat

Download on the App Store